(320351) = 2007 TQ192

Discovered at Kitt Peak on 2007-10-05 by Spacewatch.

Orbit

Orbit type: Main Belt

Note: WebGL enabled browser required.

epoch2023-09-13.0
epoch JD2460200.5
perihelion date2023-07-24.91890
perihelion JD2460150.41890
argument of perihelion (°)137.30468
ascending node (°)220.58875
inclination (°)5.12436
eccentricity0.0683894
perihelion distance (AU)2.0203950
Tisserand w.r.t. Jupiter3.7
ΔV w.r.t. Earth (km/sec)8.9
semimajor axis (AU)2.1687119
mean anomaly (°)15.45521
mean daily motion (°/day)0.30860360
aphelion distance (AU)2.317
period (years)3.19
P-vector [x]0.99756084
P-vector [y]-0.05592857
P-vector [z]0.04176562
Q-vector [x]0.03866944
Q-vector [y]0.94092775
Q-vector [z]0.33639209
absolute magnitude17.98
phase slope0.15
uncertainty0
referenceMPEC 2023-Y63
observations used240
oppositions12
arc length (days)7003
first opposition used2004
last opposition used2023
residual rms (arc-secs)0.76
perturbers coarse indicatorM-v
perturbers precise indicator003Ek
first observation date used2004-10-15.0
last observation date used2023-12-18.0
computer nameMPCLINUX
JD of orbit computation2456523.296721
perihelion JD uncertainty (days)2.4969E-04
argument of perihelion uncertainty (°)8.5060E-05
ascending node uncertainty (°)4.8266E-05
inclination uncertainty (°)4.4204E-06
eccentricity uncertainty 1.8014E-07
perihelion distance uncertainty (AU)4.3891E-07
Minimum Orbit Intersection Distances (in AU)
for orbit epoch: 2460200.5, reference: E2023-Y63
Mercury1.6436
Venus1.30147
Earth1.01961
Mars0.59772
Jupiter2.9193
Saturn6.87202
Uranus16.1419
Neptune27.7902

Observations

249 total observations over interval: 2004 10 15.42809 – 2023 12 18.202686
These data are available for download (format description).

Date (UT) J2000 RA J2000 Dec Magn Location Ref
2004 10 15.42809 04 22 13.49 +20 32 50.1 20.8 R G96 – Mt. Lemmon Survey MPS 229889
2004 10 15.43468 04 22 13.34 +20 32 48.7 20.9 R G96 – Mt. Lemmon Survey MPS 229889
2004 10 15.44125 04 22 13.38 +20 32 45.9 21.4 R G96 – Mt. Lemmon Survey MPS 229889
2004 10 15.44781 04 22 13.16 +20 32 45.3 20.8 R G96 – Mt. Lemmon Survey MPS 229889
2004 11 10.38654 04 05 28.45 +18 15 21.3 19.9 R 695 – Kitt Peak MPS 229889
2004 11 10.46202 04 05 23.63 +18 14 51.7   695 – Kitt Peak MPS 229889
2004 12 11.81543 03 33 58.32 +15 07 15.6 19.9 R 599 – Campo Imperatore-CINEOS MPS 229889
2004 12 11.83805 03 33 57.33 +15 07 10.1 19.9 R 599 – Campo Imperatore-CINEOS MPS 229889
2004 12 11.84937 03 33 56.77 +15 07 06.8 19.8 R 599 – Campo Imperatore-CINEOS MPS 229889
2007 10 05.18991 01 32 40.60 +13 37 07.1   691 – Steward Observatory, Kitt Peak-Spacewatch MPS 223659
2007 10 05.20755 01 32 39.68 +13 36 59.2   691 – Steward Observatory, Kitt Peak-Spacewatch MPS 223659
2007 10 05.22517 01 32 38.73 +13 36 50.3   691 – Steward Observatory, Kitt Peak-Spacewatch MPS 223659
2007 10 11.33221 01 27 11.16 +12 45 04.1 20.0 V G96 – Mt. Lemmon Survey MPS 223659
2007 10 11.33937 01 27 10.76 +12 45 00.1 19.9 V G96 – Mt. Lemmon Survey MPS 223659
2007 10 11.34650 01 27 10.33 +12 44 56.4 19.9 V G96 – Mt. Lemmon Survey MPS 223659
2007 10 11.35360 01 27 09.93 +12 44 52.5 20.0 V G96 – Mt. Lemmon Survey MPS 223659
2007 10 12.26466 01 26 19.58 +12 36 45.1 19.4 C 704 – Lincoln Laboratory ETS, New Mexico MPS 287417
2007 10 12.29843 01 26 17.36 +12 36 27.1 17.7 C 704 – Lincoln Laboratory ETS, New Mexico MPS 287417
2007 10 13.14378 01 25 30.81 +12 28 45.7 19.9 V 691 – Steward Observatory, Kitt Peak-Spacewatch MPS 223659
2007 10 13.16143 01 25 29.82 +12 28 36.4 19.8 V 691 – Steward Observatory, Kitt Peak-Spacewatch MPS 223659
2007 10 13.17908 01 25 28.79 +12 28 26.9 20.0 V 691 – Steward Observatory, Kitt Peak-Spacewatch MPS 223659
2007 10 16.14401 01 22 42.81 +12 01 08.8 19.9 V 691 – Steward Observatory, Kitt Peak-Spacewatch MPS 223659
2007 10 16.16166 01 22 41.80 +12 00 59.5 20.0 V 691 – Steward Observatory, Kitt Peak-Spacewatch MPS 223659
2007 10 16.17931 01 22 40.75 +12 00 49.3 20.0 V 691 – Steward Observatory, Kitt Peak-Spacewatch MPS 223659
2007 10 21.13351 01 18 06.93 +11 14 18.8   691 – Steward Observatory, Kitt Peak-Spacewatch MPS 229081
2007 10 21.15111 01 18 05.98 +11 14 08.6   691 – Steward Observatory, Kitt Peak-Spacewatch MPS 229081
2007 10 21.16872 01 18 05.00 +11 13 58.9   691 – Steward Observatory, Kitt Peak-Spacewatch MPS 229081
2007 10 31.08794 01 09 50.39 +09 43 04.3   691 – Steward Observatory, Kitt Peak-Spacewatch MPS 223659
2007 10 31.10653 01 09 49.55 +09 42 54.6   691 – Steward Observatory, Kitt Peak-Spacewatch MPS 223659
2007 10 31.12512 01 09 48.77 +09 42 44.8   691 – Steward Observatory, Kitt Peak-Spacewatch MPS 223659
2007 11 02.07405 01 08 25.13 +09 26 00.2 20.3 V 691 – Steward Observatory, Kitt Peak-Spacewatch MPS 225049
2007 11 02.09269 01 08 24.35 +09 25 51.0 20.2 V 691 – Steward Observatory, Kitt Peak-Spacewatch MPS 225049
2007 11 02.11134 01 08 23.52 +09 25 41.4 20.2 V 691 – Steward Observatory, Kitt Peak-Spacewatch MPS 225049
2007 12 06.16375 01 02 40.95 +06 42 21.9 21.0 V G96 – Mt. Lemmon Survey MPS 229889
2007 12 06.17159 01 02 41.10 +06 42 21.7 21.1 V G96 – Mt. Lemmon Survey MPS 229889
2007 12 06.17949 01 02 41.28 +06 42 21.2 21.4 V G96 – Mt. Lemmon Survey MPS 229889
2007 12 06.18737 01 02 41.38 +06 42 21.2 21.1 V G96 – Mt. Lemmon Survey MPS 229889
2009 03 27.29756 11 46 58.94 -04 40 48.4 20.6 V G96 – Mt. Lemmon Survey MPS 281332
2009 03 27.30576 11 46 58.36 -04 40 43.9 20.8 V G96 – Mt. Lemmon Survey MPS 281332
2009 03 27.31390 11 46 57.90 -04 40 39.6 20.1 V G96 – Mt. Lemmon Survey MPS 281332
2009 03 27.32199 11 46 57.43 -04 40 35.4 20.8 V G96 – Mt. Lemmon Survey MPS 281332
2010 08 29.523340 22 57 28.960 +02 45 31.57 20.03 i F51 – Pan-STARRS 1, Haleakala MPS 365692
2010 08 29.534323 22 57 28.354 +02 45 27.22 20.07 i F51 – Pan-STARRS 1, Haleakala MPS 365692
2010 08 29.547655 22 57 27.619 +02 45 22.00 20.16 r F51 – Pan-STARRS 1, Haleakala MPS 365692
2010 08 29.558769 22 57 27.013 +02 45 17.46 20.03 r F51 – Pan-STARRS 1, Haleakala MPS 365692
2010 09 04.31938 22 52 20.16 +02 04 49.8 19.7   704 – Lincoln Laboratory ETS, New Mexico MPS 347157
2010 09 04.33231 22 52 19.36 +02 04 43.7 20.2   704 – Lincoln Laboratory ETS, New Mexico MPS 347157
2010 09 04.34542 22 52 18.64 +02 04 37.5 20.3   704 – Lincoln Laboratory ETS, New Mexico MPS 347157
2010 09 04.35880 22 52 17.98 +02 04 31.3 19.8   704 – Lincoln Laboratory ETS, New Mexico MPS 347157
2010 09 10.466400 22 46 49.635 +01 16 09.93 20.51 g F51 – Pan-STARRS 1, Haleakala MPS 365692
2010 09 10.477327 22 46 49.019 +01 16 04.42 20.63 g F51 – Pan-STARRS 1, Haleakala MPS 365692
2010 09 10.489474 22 46 48.343 +01 15 58.52 20.01 r F51 – Pan-STARRS 1, Haleakala MPS 365692
2010 09 10.501068 22 46 47.694 +01 15 52.78 20.02 r F51 – Pan-STARRS 1, Haleakala MPS 365692
2010 09 16.301512 22 41 53.490 +00 27 05.71 19.91 i F51 – Pan-STARRS 1, Haleakala MPS 365692
2010 09 16.312995 22 41 52.902 +00 26 59.82 20.00 i F51 – Pan-STARRS 1, Haleakala MPS 365692
2010 10 13.21542 22 29 23.02 -02 53 03.2 20.3 V G96 – Mt. Lemmon Survey MPS 351346
2010 10 13.22229 22 29 22.99 -02 53 05.8 20.4 V G96 – Mt. Lemmon Survey MPS 351346
2010 10 13.22921 22 29 22.95 -02 53 08.0 20.4 V G96 – Mt. Lemmon Survey MPS 351346
2010 10 13.23620 22 29 22.92 -02 53 10.2 20.4 V G96 – Mt. Lemmon Survey MPS 351346
2010 10 26.13855 22 31 36.14 -03 45 03.0 20.7 Y W91 – VHS-VISTA, Cerro Paranal MPS 678623
2010 10 26.14327 22 31 36.22 -03 45 03.9 19.1 J W91 – VHS-VISTA, Cerro Paranal MPS 678623
2010 11 05.11648 22 36 54.03 -04 00 48.1 21.1 V G96 – Mt. Lemmon Survey MPS 355470
2010 11 05.12237 22 36 54.28 -04 00 48.6 20.5 V G96 – Mt. Lemmon Survey MPS 355470
2010 11 05.12815 22 36 54.50 -04 00 48.0 21.8 V G96 – Mt. Lemmon Survey MPS 355470
2010 11 05.13395 22 36 54.72 -04 00 48.4 20.9 V G96 – Mt. Lemmon Survey MPS 355470
2012 01 19.46583 10 40 52.896 +00 00 01.63 21.7 w F51 – Pan-STARRS 1, Haleakala MPS 407746
2012 01 19.48867 10 40 52.332 +00 00 01.69 21.6 w F51 – Pan-STARRS 1, Haleakala MPS 407746
2012 01 19.50272 10 40 51.983 +00 00 01.78 21.6 w F51 – Pan-STARRS 1, Haleakala MPS 407746
2012 01 19.51683 10 40 51.626 +00 00 01.77 21.6 w F51 – Pan-STARRS 1, Haleakala MPS 407746
2012 02 25.33605 10 11 00.99 +02 27 57.5 20.8 V G96 – Mt. Lemmon Survey MPS 414231
2012 02 25.34296 10 11 00.56 +02 28 00.1 20.7 V G96 – Mt. Lemmon Survey MPS 414231
2012 02 25.34995 10 11 00.13 +02 28 03.1 20.7 V G96 – Mt. Lemmon Survey MPS 414231
2013 07 06.49870 20 44 13.904 -08 31 36.61 20.8 g F51 – Pan-STARRS 1, Haleakala MPS 472061
2013 07 06.52184 20 44 12.899 -08 31 35.80 20.3 r F51 – Pan-STARRS 1, Haleakala MPS 472061
2013 07 06.53221 20 44 12.448 -08 31 35.36 20.2 r F51 – Pan-STARRS 1, Haleakala MPS 472061
2013 07 12.50462 20 39 42.171 -08 31 19.07 20.3 w F51 – Pan-STARRS 1, Haleakala MPS 472601
2013 07 12.51960 20 39 41.385 -08 31 19.51 20.3 w F51 – Pan-STARRS 1, Haleakala MPS 472601
2013 07 12.53460 20 39 40.596 -08 31 19.90 20.2 w F51 – Pan-STARRS 1, Haleakala MPS 472601
2013 08 09.37600 20 12 59.184 -09 47 06.91 20.7 g F51 – Pan-STARRS 1, Haleakala MPS 473637
2013 08 09.38650 20 12 58.582 -09 47 09.56 20.7 g F51 – Pan-STARRS 1, Haleakala MPS 473637
2014 12 18.50860 09 00 45.185 +09 05 37.88 21.3 w F51 – Pan-STARRS 1, Haleakala MPS 558226
2014 12 18.52101 09 00 44.980 +09 05 35.91 21.2 w F51 – Pan-STARRS 1, Haleakala MPS 558226
2014 12 18.53189 09 00 44.794 +09 05 34.37 21.2 w F51 – Pan-STARRS 1, Haleakala MPS 558226
2014 12 18.54284 09 00 44.618 +09 05 32.51 21.1 w F51 – Pan-STARRS 1, Haleakala MPS 558226
2015 01 26.51420 08 29 59.381 +09 39 27.41 20.5 w F51 – Pan-STARRS 1, Haleakala MPS 569367
2015 01 26.52798 08 29 58.433 +09 39 30.67 20.5 w F51 – Pan-STARRS 1, Haleakala MPS 569367
2015 01 26.54174 08 29 57.488 +09 39 33.81 20.6 w F51 – Pan-STARRS 1, Haleakala MPS 569367
2015 02 19.28134 08 07 05.961 +11 27 55.28 20.9 w F51 – Pan-STARRS 1, Haleakala MPS 582961
2015 02 19.29419 08 07 05.398 +11 27 59.07 21.0 w F51 – Pan-STARRS 1, Haleakala MPS 582961
